FW7632 Weather Reports


Display with metric or nautical units.
time (UTC)temp
F
wind
direction
speed
MPH
gust
MPH
rain 1hr
in
rain 24hr
in
rain mn
in
humidity
%
barometer
mb
20260831211559 69 101 0.0 2.0 0.00 0.31 0.31 1 1016.8
20260831210054 69 101 1.0 2.0 0.01 0.31 0.31 1 1016.6
20260831204555 69 101 1.0 4.0 0.04 0.31 0.31 1 1016.7
20260831203049 69 101 0.0 2.0 0.06 0.31 0.31 1 1016.7
20260831201541 69 101 0.0 1.0 0.06 0.31 0.31 1 1016.8
20260831200037 69 100 0.0 3.0 0.05 0.30 0.30 1 1016.9
20260831194532 68 101 0.0 4.0 0.02 0.27 0.27 1 1016.8
20260831193051 69 101 1.0 3.0 0.00 0.25 0.25 1 1017.0
20260831191525 68 100 0.0 2.0 0.00 0.25 0.25 1 1017.1
20260831190024 68 100 0.0 4.0 0.00 0.25 0.25 1 1017.4
20260831184514 68 100 1.0 3.0 0.01 0.25 0.25 1 1017.6
20260831183012 68 99 1.0 3.0 0.01 0.25 0.25 1 1017.6
20260831181508 68 99 1.0 2.0 0.05 0.25 0.25 1 1017.9
20260831180105 68 99 0.0 3.0 0.06 0.25 0.25 1 1018.1
20260831174556 67 99 2.0 3.0 0.07 0.24 0.24 1 1018.2
20260831173052 68 99 0.0 2.0 0.08 0.24 0.24 1 1018.4
20260831171548 68 99 0.0 0.0 0.11 0.21 0.21 1 1018.6
20260831170044 68 99 0.0 2.0 0.19 0.19 0.19 1 1018.8
20260831164600 69 99 0.0 1.0 0.17 0.17 0.17 1 1018.8
20260831163035 70 100 0.0 0.0 0.16 0.16 0.16 1 1018.8
20260831161548 71 105 0.0 2.0 0.10 0.10 0.10 1 1019.0
20260831160030 71 98 0.0 0.0 0.00 0.00 0.00 1 1019.0
20260831154521 71 98 1.0 4.0 0.00 0.00 0.00 1 1018.6
20260831153017 71 98 0.0 2.0 0.00 0.00 0.00 1 1018.6
20260831151512 70 98 0.0 2.0 0.00 0.00 0.00 1 1018.7
20260831150008 70 98 2.0 4.0 0.00 0.00 0.00 1 1018.6
20260831144503 70 97 1.0 4.0 0.00 0.00 0.00 1 1018.6
20260831143059 69 98 0.0 3.0 0.00 0.00 0.00 1 1018.6
20260831141554 68 101 0.0 6.0 0.00 0.00 0.00 1 1018.7
20260831140053 67 103 3.0 9.0 0.00 0.00 0.00 1 1018.5
20260831134557 67 75 3.0 8.0 0.00 0.00 0.00 1 1018.6
20260831133042 66 108 3.0 6.0 0.00 0.00 0.00 1 1018.8
20260831131553 66 76 1.0 5.0 0.00 0.00 0.00 1 1019.0
20260831130040 65 74 1.0 4.0 0.00 0.00 0.00 1 1018.9
20260831124535 64 284 1.0 3.0 0.00 0.00 0.00 1 1018.9
20260831123025 64 281 1.0 3.0 0.00 0.00 0.00 1 1018.8
20260831121523 63 279 0.0 2.0 0.00 0.00 0.00 1 1019.0
20260831120014 63 280 0.0 2.0 0.00 0.00 0.00 1 1019.1
20260831114510 63 280 0.0 1.0 0.00 0.00 0.00 1 1019.0
20260831113006 63 279 0.0 2.0 0.00 0.00 0.00 1 1018.9
20260831111500 62 279 0.0 2.0 0.00 0.00 0.00 1 1019.0
20260831110057 62 279 0.0 0.0 0.00 0.00 0.00 1 1018.6
20260831104553 62 279 0.0 0.0 0.00 0.00 0.00 1 1018.3
20260831103051 62 279 0.0 3.0 0.00 0.00 0.00 1 1018.3
20260831101546 62 279 0.0 1.0 0.00 0.00 0.00 1 1018.4
20260831100052 62 279 0.0 2.0 0.00 0.00 0.00 1 1018.3
20260831094540 62 279 0.0 0.0 0.00 0.00 0.00 1 1018.4
20260831093047 62 279 0.0 1.0 0.00 0.00 0.00 1 1018.5
20260831091528 62 279 0.0 1.0 0.00 0.00 0.00 1 1018.6
20260831090024 62 279 0.0 2.0 0.00 0.00 0.00 1 1018.3
20260831084520 62 279 0.0 1.0 0.00 0.00 0.00 1 1018.1
20260831083015 63 279 0.0 2.0 0.00 0.00 0.00 1 1018.4
20260831081512 63 279 0.0 2.0 0.00 0.00 0.00 1 1018.2
20260831080008 63 280 0.0 1.0 0.00 0.00 0.00 1 1018.2
20260831074503 63 281 0.0 1.0 0.00 0.00 0.00 1 1018.3
20260831073058 64 281 0.0 1.0 0.00 0.00 0.00 1 1018.3
20260831071555 64 280 0.0 0.0 0.00 0.00 0.00 1 1018.1
20260831070051 65 280 0.0 1.0 0.00 0.00 0.00 1 1018.2
20260831064545 65 281 0.0 1.0 0.00 0.00 0.00 1 1018.2
20260831063041 66 279 0.0 0.0 0.00 0.00 0.00 1 1018.3
20260831061539 66 279 0.0 0.0 0.00 0.00 0.00 1 1018.5
20260831060032 66 279 0.0 1.0 0.00 0.00 0.00 1 1018.6
20260831054526 67 279 0.0 1.0 0.00 0.00 0.00 1 1018.8
20260831053025 67 279 0.0 0.0 0.00 0.00 0.00 1 1018.8
20260831051521 67 279 0.0 0.0 0.00 0.00 0.00 1 1018.8
20260831050013 67 279 0.0 0.0 0.00 0.00 0.00 1 1018.8
20260831044510 67 278 0.0 0.0 0.00 0.00 0.00 1 1018.8
20260831043004 68 277 0.0 0.0 0.00 0.00 0.00 1 1018.8
20260831041611 68 277 0.0 0.0 0.00 0.00 0.00 1 1018.9
20260831040056 68 277 0.0 0.0 0.00 0.00 0.00 1 1018.7
20260831034553 68 277 0.0 2.0 0.00 0.00 0.00 1 1018.9
20260831033101 68 277 0.0 1.0 0.00 0.00 0.00 1 1018.8
20260831031543 68 277 0.0 1.0 0.00 0.00 0.00 1 1018.9
20260831030038 68 277 0.0 2.0 0.00 0.00 0.00 1 1018.8
20260831024534 68 277 0.0 0.0 0.00 0.00 0.00 1 1018.8
20260831023029 68 277 0.0 1.0 0.00 0.00 0.00 1 1018.9
20260831021529 69 277 0.0 2.0 0.00 0.00 0.00 1 1018.9
20260831020023 69 277 1.0 3.0 0.00 0.00 0.00 1 1018.9
20260831014519 69 276 0.0 6.0 0.00 0.00 0.00 1 1018.9
20260831013019 69 277 0.0 8.0 0.00 0.00 0.00 1 1018.7
20260831011521 69 269 0.0 5.0 0.00 0.00 0.00 1 1018.7
20260831010016 69 284 3.0 9.0 0.00 0.00 0.00 1 1018.7
20260831004512 70 310 4.0 7.0 0.00 0.00 0.00 1 1018.6
20260831003017 70 271 0.0 6.0 0.00 0.00 0.00 1 1018.3
20260831001509 70 271 0.0 3.0 0.00 0.00 0.00 1 1017.9
20260831000002 70 270 0.0 6.0 0.00 0.00 0.00 1 1017.7
20260830234611 70 271 0.0 3.0 0.00 0.00 0.00 1 1017.6
20260830233057 71 269 0.0 2.0 0.00 0.00 0.00 1 1017.5
20260830231554 71 269 0.0 2.0 0.00 0.00 0.00 1 1017.5
20260830230046 71 271 0.0 3.0 0.00 0.00 0.00 1 1017.5
20260830224542 71 271 0.0 4.0 0.00 0.00 0.00 1 1017.5
20260830223037 72 272 0.0 2.0 0.00 0.00 0.00 1 1017.3
20260830221533 72 269 0.0 6.0 0.00 0.00 0.00 1 1017.4
20260830220029 72 283 0.0 4.0 0.00 0.00 0.00 1 1017.2
20260830214525 72 246 1.0 4.0 0.00 0.00 0.00 3 1017.3
20260830213028 73 246 1.0 5.0 0.00 0.00 0.00 8 1017.2